Flag for U.S.A. Weather past 2 weeks in Springfield, Massachusetts, U.S.A.

Now
70 °F

Fog.


Feels Like: 64 °F
Forecast: 69 / 87 °F
Wind: No wind

Location: Barnes Municipal Airport

Current Time: Sep 2, 2014 at 6:34:14 AM

Latest Report: Sep 2, 2014 at 6:00 AM


Visibility: 1 mi

Pressure: 29.89 "Hg

Humidity: 97%

Dew point: 69 °F

Location of SpringfieldLocation

Historic Weather in Springfield — Graph

°F

Springfield temperature yesterday

Maximum temperature yesterday: 88 °F (at 2:53 PM)
Minimum temperature yesterday: 68 °F (at 4:53 AM)
Average temperature yesterday: 77 °F

Past Weeks' High & Low Weather Summary

 TemperatureHumidityPressure
High89 °F (Aug 27, 4:53 PM)97% (Aug 24, 4:01 AM)30.29 "Hg (Aug 24, 4:01 AM)
Low49 °F (Aug 19, 5:00 AM)34% (Aug 26, 4:53 PM)29.81 "Hg (Aug 18, 2:53 PM)
Average69 °F74%30.04 "Hg
* Reported Aug 18 4:53 AM — Sep 2 4:53 AM, Springfield, Weather by CustomWeather, © 2014

Note: Actual official high and low records may vary slightly from our data, if they occured in-between our weather recording intervals... More about our weather records

Advertising

Springfield weather history for previous 24 hours

 ConditionsComfort  
Time TempWeatherWind HumidityBarometerVisibility
4:53 AM
Sep 2
70 °FFog.No wind93%29.88 "Hg0 mi
3:53 AM71 °FClear.No wind93%29.88 "Hg7 mi
2:53 AM72 °FFog.No wind93%29.89 "Hg5 mi
1:53 AM73 °FPassing clouds.No wind90%29.90 "Hg9 mi
12:53 AM74 °FOvercast.No wind91%29.91 "Hg10 mi
11:53 PM
Sep 1
72 °FPassing clouds.5 mph93%29.93 "Hg10 mi
10:53 PM73 °FClear.3 mph90%29.93 "Hg10 mi
9:53 PM72 °FPassing clouds.3 mph93%29.93 "Hg10 mi
8:53 PM74 °FClear.No wind91%29.93 "Hg10 mi
7:53 PM77 °FSunny.No wind82%29.91 "Hg10 mi
6:53 PM81 °FSunny.3 mph67%29.90 "Hg10 mi
5:53 PM87 °FScattered clouds.5 mph46%29.90 "Hg10 mi
4:53 PM88 °FScattered clouds.7 mph43%29.90 "Hg10 mi
3:53 PM88 °FPassing clouds.7 mph48%29.91 "Hg10 mi
2:53 PM88 °FPassing clouds.9 mph48%29.92 "Hg10 mi
1:53 PM85 °FScattered clouds.9 mph61%29.94 "Hg10 mi
1:03 PM85 °FBroken clouds.8 mph61%29.96 "Hg10 mi
11:53 AM83 °FPassing clouds.5 mph65%29.96 "Hg10 mi
10:53 AM79 °FPartly sunny.5 mph74%29.97 "Hg10 mi
9:53 AM80 °FPassing clouds.No wind69%29.98 "Hg10 mi
8:53 AM75 °FPassing clouds.No wind85%29.99 "Hg10 mi
7:53 AM71 °FLow clouds.No wind93%30.00 "Hg10 mi
6:53 AM69 °FFog.No wind93%29.99 "Hg0 mi
Weather by CustomWeather, © 2014

See weather overviewHow to use our weather pages